Mosby, MO

11:17 PM CST on December 09, 2019 (GMT -0600)
Clay County Regional

Weather History for KGPH - October, 2019

Change the Weather History Date:

Tuesday, October 1, 2019

  Actual Average (WUND) Record (WUND)
Temperature  
Mean Temperature 80 °F -  
Max Temperature 89 °F - - (-1)
Min Temperature 71 °F - - (-1)
Cooling Degree Days 15    
Growing Degree Days 30 (Base 50)    
Moisture  
Dew Point 67 °F    
Average Humidity 65    
Maximum Humidity 83    
Minimum Humidity 52    
Precipitation  
Precipitation 0.00 in - - ()
Sea Level Pressure  
Sea Level Pressure 29.91 in    
Wind  
Wind Speed 2 mph ()    
Max Wind Speed 15 mph    
Max Gust Speed 20 mph    
Visibility 10.0 miles    
Events      
Averages and records for this station are not official NWS values.
T = Trace of Precipitation, MM = Missing Value Source: Averaged Metar Reports

Daily Weather History Graph

Daily Weather History Graph

Search for Another Location

Airport or City:

Astronomy

Oct. 01, 2019 Rise Set
Actual Time 7:13 AM CDT 7:00 PM CDT
Civil Twilight 6:46 AM CDT 7:26 PM CDT
Nautical Twilight 6:15 AM CDT 7:57 PM CDT
Astronomical Twilight 5:43 AM CDT 8:29 PM CDT
Moon 10:29 AM CDT (10/1) 9:14 PM CDT (10/1)
Length of Visible Light 12h 40m
Length of Day
11h 46m
Waxing Crescent, 12% of the Moon is Illuminated
Oct 1
Waxing Crescent
Oct 5
First Quarter
Oct 13
Full
Oct 21
Last Quarter
Oct 27
New

Hourly Weather History & Observations

Time (CDT) Temp. Heat Index Dew Point Humidity Pressure Visibility Wind Dir Wind Speed Gust Speed Precip Events Conditions
1:15 AM 77.0 °F - 66.2 °F 69% 29.91 in 10.0 mi Calm Calm - N/A   Clear
1:35 AM 77.0 °F - 66.2 °F 69% 29.91 in 10.0 mi Calm Calm - N/A   Clear
1:55 AM 77.0 °F - 66.2 °F 69% 29.91 in 10.0 mi Calm Calm - N/A   Clear
2:15 AM 77.0 °F - 66.2 °F 69% 29.91 in 10.0 mi Calm Calm - N/A   Clear
2:35 AM 77.0 °F - 66.2 °F 69% 29.91 in 10.0 mi Calm Calm - N/A   Clear
2:55 AM 77.0 °F - 66.2 °F 69% 29.91 in 10.0 mi Calm Calm - N/A   Clear
4:15 AM 77.0 °F - 66.2 °F 69% 29.92 in 10.0 mi Calm Calm - N/A   Clear
4:35 AM 77.0 °F - 66.2 °F 69% 29.93 in 10.0 mi Calm Calm - N/A   Clear
4:55 AM 75.2 °F - 66.2 °F 73% 29.93 in 10.0 mi Calm Calm - N/A   Clear
5:15 AM 75.2 °F - 66.2 °F 73% 29.94 in 10.0 mi Calm Calm - N/A   Clear
5:35 AM 75.2 °F - 66.2 °F 73% 29.93 in 10.0 mi Calm Calm - N/A   Clear
5:55 AM 75.2 °F - 64.4 °F 69% 29.94 in 10.0 mi Calm Calm - N/A   Clear
6:15 AM 73.4 °F - 64.4 °F 73% 29.94 in 10.0 mi Calm Calm - N/A   Clear
6:35 AM 73.4 °F - 64.4 °F 73% 29.95 in 10.0 mi Calm Calm - N/A   Clear
6:55 AM 71.6 °F - 66.2 °F 83% 29.95 in 10.0 mi Calm Calm - N/A   Clear
7:35 AM 73.4 °F - 64.4 °F 73% 29.95 in 10.0 mi Calm Calm - N/A   Clear
7:55 AM 73.4 °F - 64.4 °F 73% 29.96 in 10.0 mi Calm Calm - N/A   Clear
8:15 AM 73.4 °F - 64.4 °F 73% 29.95 in 10.0 mi Calm Calm - N/A   Clear
9:15 AM 77.0 °F - 64.4 °F 65% 29.97 in 10.0 mi Calm Calm - N/A   Clear
9:35 AM 77.0 °F - 66.2 °F 69% 29.97 in 10.0 mi Calm Calm - N/A   Clear
9:55 AM 78.8 °F - 66.2 °F 65% 29.96 in 10.0 mi Calm Calm - N/A   Clear
10:15 AM 78.8 °F - 66.2 °F 65% 29.96 in 10.0 mi South 4.6 mph - N/A   Clear
10:35 AM 80.6 °F 82.7 °F 66.2 °F 61% 29.96 in 10.0 mi SSW 11.5 mph 17.3 mph N/A   Clear
11:15 AM 82.4 °F 85.4 °F 68.0 °F 62% 29.96 in 10.0 mi South 10.4 mph - N/A   Clear
12:15 PM 84.2 °F 88.4 °F 69.8 °F 62% 29.96 in 10.0 mi SSW 4.6 mph 16.1 mph N/A   Clear
12:35 PM 84.2 °F 88.4 °F 69.8 °F 62% 29.96 in 10.0 mi SSW 12.7 mph 16.1 mph N/A   Clear
2:35 PM 87.8 °F 92.6 °F 69.8 °F 55% 29.90 in 10.0 mi SSW 12.7 mph 17.3 mph N/A   Scattered Clouds
3:15 PM 89.6 °F 94.7 °F 69.8 °F 52% 29.88 in 10.0 mi SW 15.0 mph 19.6 mph N/A   Scattered Clouds
3:55 PM 89.6 °F 94.7 °F 69.8 °F 52% 29.86 in 10.0 mi SSW 8.1 mph 17.3 mph N/A   Scattered Clouds
4:15 PM 87.8 °F 92.6 °F 69.8 °F 55% 29.86 in 10.0 mi South 10.4 mph 19.6 mph N/A   Mostly Cloudy
5:15 PM 87.8 °F 92.6 °F 69.8 °F 55% 29.85 in 10.0 mi South 8.1 mph 16.1 mph N/A   Scattered Clouds
5:35 PM 86.0 °F 90.4 °F 69.8 °F 58% 29.85 in 10.0 mi South 5.8 mph - N/A   Scattered Clouds
6:15 PM 86.0 °F 89.4 °F 68.0 °F 55% 29.85 in 10.0 mi South 8.1 mph - N/A   Clear
6:35 PM 84.2 °F 87.3 °F 68.0 °F 58% 29.85 in 10.0 mi South 6.9 mph 16.1 mph N/A   Clear
7:35 PM 80.6 °F 83.2 °F 68.0 °F 65% 29.86 in 10.0 mi Calm Calm - N/A   Clear
8:55 PM 78.8 °F - 68.0 °F 69% 29.86 in 10.0 mi Calm Calm - N/A   Clear
9:35 PM 80.6 °F 83.2 °F 68.0 °F 65% 29.87 in 10.0 mi South 6.9 mph - N/A   Mostly Cloudy
9:55 PM 80.6 °F 82.7 °F 66.2 °F 61% 29.87 in 10.0 mi South 10.4 mph - N/A   Overcast
10:55 PM 80.6 °F 82.3 °F 64.4 °F 58% 29.87 in 10.0 mi South 8.1 mph - N/A   Mostly Cloudy
11:15 PM 80.6 °F 82.3 °F 64.4 °F 58% 29.87 in 10.0 mi Calm Calm - N/A   Overcast
11:55 PM 80.6 °F 82.3 °F 64.4 °F 58% 29.88 in 10.0 mi SW 11.5 mph - N/A   Overcast